When you browse on this site, cookies collect data to enhance your experience and personalize the content and advertising you see.
Visit our Privacy Policy to learn more. By continuing to use the site, you agree to this use of cookies and data.
  • In United Kingdom
  • List of Countries
  • For 7 days
  • Water Temperature
  • Satellite Maps
  • Weather Map
  • Weather Widgets
  • user-avatar
    Login

    Hourly Weather Egilsstaðir

    Today, 23 January, Wednesday

    Time Temperature Precipitation Wind Pressure Humidity
    00:00 -14°C° 0 mm 1 mps 658 mmHg 85%
    01:00 -13°C° 0 mm 1 mps 658 mmHg 86%
    02:00 -13°C° 0 mm 1 mps 658 mmHg 85%
    03:00 -13°C° 0 mm 1 mps 658 mmHg 85%
    04:00 -13°C° 0 mm 1 mps 658 mmHg 84%
    05:00 -14°C° 0 mm 1 mps 658 mmHg 84%
    06:00 -17°C° 0 mm 2 mps 658 mmHg 85%
    07:00 -17°C° 0 mm 2 mps 657 mmHg 84%
    08:00 -18°C° 0 mm 2 mps 658 mmHg 84%
    09:00 -19°C° 0 mm 2 mps 658 mmHg 84%
    10:00 -20°C° 0 mm 2 mps 658 mmHg 84%
    11:00 -21°C° 0 mm 2 mps 658 mmHg 86%
    12:00 -21°C° 0 mm 2 mps 658 mmHg 87%
    13:00 -23°C° 0 mm 2 mps 658 mmHg 89%
    14:00 -23°C° 0 mm 2 mps 659 mmHg 91%
    15:00 -23°C° 0 mm 2 mps 659 mmHg 92%
    16:00 -24°C° 0 mm 2 mps 659 mmHg 94%
    17:00 -23°C° 0 mm 2 mps 659 mmHg 94%
    18:00 -23°C° 0 mm 2 mps 660 mmHg 95%
    19:00 -21°C° 0 mm 2 mps 660 mmHg 95%
    20:00 -21°C° 0.1 mm 2 mps 661 mmHg 95%
    21:00 -21°C° 0.1 mm 2 mps 661 mmHg 95%
    22:00 -21°C° 0.1 mm 2 mps 662 mmHg 95%
    23:00 -21°C° 0.1 mm 2 mps 662 mmHg 95%

    Tomorrow, 24 January, Thursday

    Time Temperature Precipitation Wind Pressure Humidity
    00:00 -21°C° 0.1 mm 2 mps 662 mmHg 95%
    01:00 -21°C° 0.1 mm 2 mps 662 mmHg 95%
    02:00 -21°C° 0.1 mm 2 mps 662 mmHg 95%
    03:00 -21°C° 0.1 mm 2 mps 663 mmHg 95%
    04:00 -21°C° 0.1 mm 2 mps 663 mmHg 95%
    05:00 -21°C° 0.2 mm 2 mps 663 mmHg 95%
    06:00 -23°C° 0.2 mm 3 mps 663 mmHg 95%
    07:00 -23°C° 0.2 mm 3 mps 663 mmHg 95%
    08:00 -23°C° 0.2 mm 3 mps 663 mmHg 94%
    09:00 -24°C° 0.2 mm 3 mps 663 mmHg 94%
    10:00 -24°C° 0.2 mm 3 mps 663 mmHg 94%
    11:00 -23°C° 0.2 mm 3 mps 663 mmHg 94%
    12:00 -23°C° 0.2 mm 3 mps 663 mmHg 94%
    13:00 -23°C° 0.2 mm 3 mps 663 mmHg 94%
    14:00 -22°C° 0.2 mm 3 mps 663 mmHg 94%
    15:00 -22°C° 0.2 mm 3 mps 663 mmHg 94%
    16:00 -22°C° 0.2 mm 3 mps 663 mmHg 95%
    17:00 -22°C° 0.2 mm 3 mps 663 mmHg 95%
    18:00 -22°C° 0.2 mm 3 mps 663 mmHg 95%
    19:00 -22°C° 0.2 mm 3 mps 664 mmHg 95%
    20:00 -21°C° 0.3 mm 3 mps 664 mmHg 95%
    21:00 -21°C° 0.3 mm 3 mps 664 mmHg 95%
    22:00 -21°C° 0.3 mm 3 mps 664 mmHg 95%
    23:00 -21°C° 0.4 mm 3 mps 664 mmHg 95%

    Day after tomorrow, 25 January, Friday

    Time Temperature Precipitation Wind Pressure Humidity
    00:00 -21°C° 0.4 mm 3 mps 664 mmHg 96%
    01:00 -19°C° 0.4 mm 3 mps 664 mmHg 96%
    02:00 -19°C° 0.8 mm 3 mps 664 mmHg 96%
    03:00 -19°C° 0.8 mm 3 mps 664 mmHg 96%
    04:00 -18°C° 0.8 mm 3 mps 664 mmHg 96%
    05:00 -18°C° 0.8 mm 3 mps 664 mmHg 96%
    06:00 -18°C° 0.8 mm 3 mps 664 mmHg 96%
    07:00 -18°C° 0.8 mm 4 mps 664 mmHg 95%
    08:00 -18°C° 0.4 mm 4 mps 664 mmHg 95%
    09:00 -18°C° 0.4 mm 4 mps 664 mmHg 95%
    10:00 -18°C° 0.4 mm 4 mps 664 mmHg 94%
    11:00 -17°C° 0.1 mm 4 mps 664 mmHg 94%
    12:00 -17°C° 0.1 mm 4 mps 664 mmHg 94%
    13:00 -17°C° 0.1 mm 4 mps 664 mmHg 94%
    14:00 -17°C° 0 mm 4 mps 664 mmHg 94%
    15:00 -16°C° 0 mm 4 mps 664 mmHg 94%
    16:00 -15°C° 0 mm 3 mps 664 mmHg 94%
    17:00 -16°C° 0 mm 4 mps 664 mmHg 94%
    18:00 -17°C° 0 mm 4 mps 664 mmHg 95%
    19:00 -17°C° 0 mm 4 mps 663 mmHg 95%
    20:00 -17°C° 0 mm 4 mps 663 mmHg 94%
    21:00 -17°C° 0 mm 4 mps 663 mmHg 94%
    22:00 -17°C° 0 mm 4 mps 662 mmHg 94%
    23:00 -18°C° 0 mm 5 mps 662 mmHg 94%

    26 January, Saturday

    Time Temperature Precipitation Wind Pressure Humidity
    00:00 -18°C° 0 mm 5 mps 662 mmHg 94%
    01:00 -18°C° 0 mm 5 mps 661 mmHg 94%
    02:00 -18°C° 0 mm 5 mps 661 mmHg 94%
    03:00 -18°C° 0 mm 6 mps 661 mmHg 93%
    04:00 -19°C° 0 mm 7 mps 660 mmHg 93%
    05:00 -19°C° 0 mm 7 mps 660 mmHg 93%
    06:00 -19°C° 0 mm 7 mps 660 mmHg 92%
    07:00 -19°C° 0 mm 8 mps 659 mmHg 92%
    08:00 -19°C° 0.1 mm 8 mps 659 mmHg 91%
    09:00 -19°C° 0.1 mm 9 mps 659 mmHg 90%
    10:00 -19°C° 0.1 mm 9 mps 659 mmHg 90%
    11:00 -19°C° 0.1 mm 10 mps 659 mmHg 89%
    12:00 -19°C° 0.1 mm 10 mps 658 mmHg 89%
    13:00 -18°C° 0.1 mm 10 mps 658 mmHg 88%
    14:00 -18°C° 0.1 mm 10 mps 658 mmHg 89%
    15:00 -17°C° 0.1 mm 9 mps 658 mmHg 90%
    16:00 -17°C° 0.1 mm 8 mps 658 mmHg 91%
    17:00 -17°C° 0.2 mm 9 mps 658 mmHg 91%
    18:00 -19°C° 0.2 mm 9 mps 658 mmHg 91%
    19:00 -19°C° 0.2 mm 10 mps 657 mmHg 91%
    20:00 -19°C° 0.1 mm 9 mps 657 mmHg 91%
    21:00 -20°C° 0.1 mm 9 mps 657 mmHg 91%
    22:00 -21°C° 0.1 mm 9 mps 657 mmHg 91%
    23:00 -21°C° 0.1 mm 9 mps 657 mmHg 91%

    27 January, Sunday

    Time Temperature Precipitation Wind Pressure Humidity
    00:00 -22°C° 0.1 mm 9 mps 657 mmHg 91%
    01:00 -22°C° 0.1 mm 9 mps 657 mmHg 91%
    02:00 -24°C° 0.1 mm 9 mps 657 mmHg 92%
    03:00 -23°C° 0.1 mm 8 mps 657 mmHg 92%
    04:00 -24°C° 0.1 mm 8 mps 657 mmHg 92%
    05:00 -25°C° 0 mm 7 mps 657 mmHg 93%
    06:00 -24°C° 0 mm 6 mps 657 mmHg 93%
    07:00 -25°C° 0 mm 5 mps 657 mmHg 94%
    08:00 -24°C° 0 mm 4 mps 657 mmHg 94%
    09:00 -25°C° 0 mm 4 mps 657 mmHg 95%
    10:00 -25°C° 0 mm 4 mps 658 mmHg 95%
    11:00 -25°C° 0 mm 4 mps 658 mmHg 95%
    12:00 -24°C° 0 mm 4 mps 658 mmHg 95%
    13:00 -24°C° 0 mm 4 mps 659 mmHg 94%
    14:00 -23°C° 0 mm 3 mps 659 mmHg 95%
    15:00 -23°C° 0 mm 3 mps 659 mmHg 95%
    16:00 -23°C° 0 mm 3 mps 659 mmHg 95%
    17:00 -23°C° 0 mm 3 mps 659 mmHg 95%
    18:00 -24°C° 0 mm 3 mps 659 mmHg 96%
    19:00 -24°C° 0 mm 3 mps 659 mmHg 97%
    20:00 -25°C° 0 mm 3 mps 659 mmHg 97%
    21:00 -26°C° 0 mm 3 mps 659 mmHg 97%
    22:00 -26°C° 0 mm 3 mps 660 mmHg 97%
    23:00 -26°C° 0 mm 2 mps 660 mmHg 97%

    28 January, Monday

    Time Temperature Precipitation Wind Pressure Humidity
    00:00 -27°C° 0 mm 2 mps 660 mmHg 97%
    01:00 -27°C° 0 mm 2 mps 660 mmHg 97%
    02:00 -28°C° 0 mm 2 mps 659 mmHg 97%
    03:00 -28°C° 0 mm 2 mps 659 mmHg 97%
    04:00 -29°C° 0 mm 2 mps 659 mmHg 97%
    05:00 -29°C° 0 mm 2 mps 659 mmHg 97%
    06:00 -29°C° 0 mm 2 mps 659 mmHg 97%
    07:00 -29°C° 0 mm 2 mps 659 mmHg 97%
    08:00 -29°C° 0 mm 2 mps 659 mmHg 96%
    09:00 -29°C° 0 mm 2 mps 659 mmHg 96%
    10:00 -29°C° 0 mm 2 mps 659 mmHg 96%
    11:00 -29°C° 0 mm 2 mps 659 mmHg 96%
    12:00 -28°C° 0 mm 2 mps 659 mmHg 96%
    13:00 -28°C° 0 mm 2 mps 659 mmHg 95%
    14:00 -28°C° 0 mm 2 mps 659 mmHg 95%
    15:00 -28°C° 0 mm 2 mps 659 mmHg 95%
    16:00 -28°C° 0 mm 2 mps 659 mmHg 95%
    17:00 -28°C° 0 mm 2 mps 659 mmHg 95%
    18:00 -27°C° 0 mm 2 mps 658 mmHg 95%
    19:00 -27°C° 0 mm 2 mps 658 mmHg 95%
    20:00 -27°C° 0.1 mm 2 mps 658 mmHg 95%
    21:00 -26°C° 0.1 mm 2 mps 658 mmHg 95%
    22:00 -26°C° 0.1 mm 2 mps 658 mmHg 95%
    23:00 -26°C° 0.1 mm 2 mps 658 mmHg 95%
    Show more